{"data":{"norad_id":42662,"epoch":"2026-09-20T00:20:23.924256Z","epoch_age_seconds":67766,"freshness":"FRESH","line1":"1 42662U 17018A   26263.01416579 -.00000356  00000+0  00000+0 0  9992","line2":"2 42662   0.0724  91.2738 0006952 137.1455 246.1792  1.00270258 34703","mean_motion":1.00270258,"eccentricity":0.0006952,"inclination_deg":0.0724,"raan_deg":91.2738,"arg_perigee_deg":137.1455,"mean_anomaly_deg":246.1792,"bstar":0,"rev_number":3470,"period_min":1436.1187741234,"perigee_km":35757.709820895,"apogee_km":35816.336259415,"semimajor_km":42165.160040155,"source":"CELESTRAK","updated_at":"2026-09-20T09:00:35.252335Z"}}